This demonstration page uses our WeatherBlox Daily Observations layout. Learn more.

Left ArrowRight Arrow

39.29038, -76.61219

Hourly Observations for October 17, 2016

Temp ( °F °C ) Dew Point ( °F °C ) Humidity (%) Winds ( mph kmh ) Pressure ( in mb ) Visibility ( mi km ) Precip ( " mm )
12:54 am 00:54 undefined 63 17.2 58 14.4 84 84 undefined N/A 30.05 1018 N/A 0.00 0.00
1:54 am 01:54 undefined 63 17.2 58 14.4 84 84 undefined N/A 30.05 1018 N/A 0.00 0.00
2:54 am 02:54 undefined 63 17.2 58 14.4 84 84 undefined N/A 30.03 1017 N/A 0.00 0.00
3:54 am 03:54 undefined 62 16.7 58 14.4 86 86 undefined N/A 30.01 1016 N/A 0.00 0.00
4:54 am 04:54 undefined 61 16.1 58 14.4 90 90 undefined N/A 30.00 1016 N/A 0.00 0.00
5:54 am 05:54 undefined 61 16.1 58 14.4 90 90 undefined N/A 30.01 1016 N/A 0.00 0.00
6:54 am 06:54 undefined 61 16.1 57 13.9 87 87 undefined N/A 30.01 1016 N/A 0.00 0.00
7:54 am 07:54 undefined 62 16.7 57 13.9 84 84 undefined N/A 30.01 1016 N/A 0.00 0.00
8:54 am 08:54 undefined 64 17.8 58 14.4 81 81 undefined N/A 30.01 1016 N/A 0.00 0.00
9:54 am 09:54 undefined 68 20 59 15 73 73 undefined N/A 30.01 1016 N/A 0.00 0.00
10:54 am 10:54 undefined 72 22.2 61 16.1 68 68 undefined N/A 30.00 1016 N/A 0.00 0.00
11:54 am 11:54 undefined 76 24.4 62 16.7 62 62 undefined N/A 29.98 1015 N/A 0.00 0.00
12:54 pm 12:54 undefined 80 26.7 62 16.7 54 54 undefined N/A 29.97 1015 N/A 0.00 0.00
1:54 pm 13:54 undefined 82 27.8 60 15.6 47 47 undefined N/A 29.93 1014 N/A 0.00 0.00
2:54 pm 14:54 undefined 84 28.9 59 15 43 43 undefined N/A 29.91 1013 N/A 0.00 0.00
3:54 pm 15:54 undefined 83 28.3 59 15 44 44 undefined N/A 29.90 1013 N/A 0.00 0.00
4:54 pm 16:54 undefined 82 27.8 59 15 46 46 undefined N/A 29.90 1012 N/A 0.00 0.00
5:54 pm 17:54 undefined 81 27.2 58 14.4 45 45 undefined N/A 29.90 1013 N/A 0.00 0.00
6:54 pm 18:54 undefined 76 24.4 62 16.7 62 62 undefined N/A 29.91 1013 N/A 0.00 0.00
7:54 pm 19:54 undefined 74 23.3 62 16.7 67 67 undefined N/A 29.92 1013 N/A 0.00 0.00
9:54 pm 21:54 undefined 71 21.7 62 16.7 73 73 undefined N/A 29.93 1014 N/A 0.00 0.00
10:54 pm 22:54 undefined 70 21.1 60 15.6 71 71 undefined N/A 29.93 1014 N/A 0.00 0.00
11:54 pm 23:54 undefined 68 20 60 15.6 76 76 undefined N/A 29.93 1013 N/A 0.00 0.00

Powered by AerisWeather